This is the latest recevied weather packets stored in our database for station/object YU7OR-2. If no packets are shown the sender has not sent any weather packets the latest 1 day(s).
| Time | Temp. | Humidity | Pressure | Rain* | Wind** | Luminosity | Snow |
|---|---|---|---|---|---|---|---|
| 1778091069 | 22.78° C | 45% | 1007.5 hPa | 0 mm | - | - | - |
| 1778090804 | 22.78° C | 45% | 1007.5 hPa | 0 mm | - | - | - |
| 1778090509 | 22.78° C | 44% | 1007.4 hPa | 0 mm | - | - | - |
| 1778090259 | 23.33° C | 44% | 1007.4 hPa | 0 mm | - | - | - |
| 1778090019 | 23.33° C | 45% | 1007.2 hPa | 0 mm | - | - | - |
| 1778089749 | 23.33° C | 44% | 1007.4 hPa | 0 mm | - | - | - |
| 1778089189 | 23.89° C | 45% | 1007.4 hPa | 0 mm | - | - | - |
| 1778088929 | 24.44° C | 45% | 1007.3 hPa | 0 mm | - | - | - |
| 1778088414 | 24.44° C | 45% | 1007.3 hPa | 0 mm | - | - | - |
| 1778088154 | 25° C | 44% | 1007.5 hPa | 0 mm | - | - | - |
| 1778087889 | 25° C | 44% | 1007.5 hPa | 0 mm | - | - | - |
| 1778087599 | 25.56° C | 44% | 1007.3 hPa | 0 mm | - | - | - |
| 1778087300 | 25.56° C | 44% | 1007.5 hPa | 0 mm | - | - | - |
| 1778087044 | 25.56° C | 43% | 1007.5 hPa | 0 mm | - | - | - |
| 1778086499 | 26.11° C | 43% | 1007.5 hPa | 0 mm | - | - | - |
| 1778086199 | 26.11° C | 43% | 1007.5 hPa | 0 mm | - | - | - |
| 1778085649 | 26.11° C | 43% | 1007.5 hPa | 0 mm | - | - | - |
| 1778085354 | 26.67° C | 43% | 1007.5 hPa | 0 mm | - | - | - |
| 1778085074 | 26.67° C | 43% | 1007.5 hPa | 0 mm | - | - | - |
| 1778084789 | 26.67° C | 43% | 1007.7 hPa | 0 mm | - | - | - |
| 1778084524 | 26.67° C | 43% | 1007.7 hPa | 0 mm | - | - | - |
| 1778084269 | 27.22° C | 43% | 1007.6 hPa | 0 mm | - | - | - |
| 1778083744 | 27.22° C | 43% | 1007.8 hPa | 0 mm | - | - | - |
| 1778083476 | 27.22° C | 43% | 1007.8 hPa | 0 mm | - | - | - |
| 1778082934 | 26.67° C | 43% | 1007.9 hPa | 0 mm | - | - | - |
* Rain latest hour (hover to see other rain measurements)
** Current wind speed in m/s (hover to see current wind gust speed)